Miscellaneous Local Product
Issued by NWS North Platte, NE

Home | Current Version | Previous Version | Text Only | Print | Product List | Glossary On
Versions: 1 2 3 4 5 6 7 8 9 10 11 12 13 14 15 16 17 18 19 20 21 22 23 24 25 26 27 28 29 30 31 32 33 34 35 36 37 38 39 40 41 42 43 44 45 46 47 48 49 50
000
AXUS43 KLBF 222110
MISLBF


WESTERN AND NORTH CENTRAL NEBRASKA HOURLY WEATHER ROUNDUP
NATIONAL WEATHER SERVICE NORTH PLATTE NE
400 PM CDT WED OCT 22 2014

***STATIONS NOT REPORTING VARIABLES SUCH AS SKY/WEATHER OR
PRESSURE ARE PROVIDED BY THE NEBRASKA DEPARTMENT OF
ROADS...RAWS...AND APRS NETWORKS...AND ARE NOT UNDER
NATIONAL WEATHER SERVICE QUALITY CONTROL***

...OBSERVATIONS IN AND NEAR THE EASTERN PANHANDLE OF NEBRASKA...

CITY           SKY/WX    TMP DP  RH WIND       PRES   REMARKS
PINE RIDGE     SUNNY     63  36  36 W13       30.02F
CHADRON        SUNNY     63  32  31 W10G17    30.02F
ALLIANCE       SUNNY     63  33  32 NW9       30.04S
SIDNEY         SUNNY     66  35  31 N12G18    30.06F
WHITECLAY        N/A     62  34  35 W5          N/A
RUSHVILLE        N/A     62  27  27 W17         N/A
CRESCENT LAKE    N/A     66  29  25 NW12        N/A
LISCO            N/A     70  15  12 W10         N/A
BIG SPRINGS      N/A     68  40  35 N5          N/A
LEWELLEN         N/A     75  23  14 SW9         N/A
$$

...OBSERVATIONS IN NORTH CENTRAL NEBRASKA...

CITY           SKY/WX    TMP DP  RH WIND       PRES   REMARKS
VALENTINE      MOSUNNY   65  42  43 N9        30.00S
THEDFORD       MOSUNNY   66  50  57 NW5       30.01F
AINSWORTH      PTSUNNY   61  49  65 W6        30.01S
O`NEILL        CLOUDY    57  55  92 NW9       30.00R
ORD            CLOUDY    61  57  87 W5        29.99R
BROKEN BOW     CLOUDY    63  56  78 N5        30.00S
BROWNLEE         N/A     67  44  43 NW7         N/A
SPRINGVIEW       N/A     60  50  70 MISG        N/A
BREWSTER         N/A     63  51  64 S3          N/A
ROSE             N/A     60  55  83 CALM        N/A
NEWPORT          N/A     58  53  80 W7          N/A
SARGENT          N/A     61  57  87 CALM        N/A
COMSTOCK         N/A     67  63  87 W3          N/A
CHAMBERS         N/A     58  54  87 W5          N/A
$$

...OBSERVATIONS IN SOUTHWEST NEBRASKA AND FAR NORTHEAST COLORADO...

CITY           SKY/WX    TMP DP  RH WIND       PRES   REMARKS
WRAY           FAIR      73  36  25 N9        30.03S
HOLYOKE        FAIR      73  34  23 N12G20    30.04S
IMPERIAL       SUNNY     71  44  37 NW6       30.01S
OGALLALA       SUNNY     71  35  27 N10       30.02S
NORTH PLATTE   MOSUNNY   69  52  54 SW3       30.00S
MCCOOK         SUNNY     71  51  49 NW7       30.00S
LEXINGTON      CLOUDY    65  56  72 CALM      30.00R
PAXTON           N/A     70  44  39 W3          N/A
SUTHERLAND       N/A     76  36  22 W9          N/A
BRADY            N/A     67  54  64 CALM        N/A
GOTHENBURG       N/A     67  51  56 CALM        N/A
CALLAWAY         N/A     61  57  85 CALM        N/A
$$

...SOME WEATHER OBSERVATIONS FROM AROUND THE REGION...

CITY           SKY/WX    TMP DP  RH WIND       PRES   REMARKS
DENVER         PTSUNNY   72  36  26 N6        30.07S
LARAMIE        SUNNY     56  27  32 W22G29    30.13F
CHEYENNE       MOSUNNY   63  29  27 W14G29    30.08F
SCOTTSBLUFF    MOSUNNY   67  30  25 NW14G20   30.03F
RAPID CITY     SUNNY     64  28  25 CALM      29.99S
PIERRE         MOSUNNY   64  42  44 NW14      29.93S
WINNER         FAIR      65  46  50 NW12      29.98S
SIOUX FALLS    CLOUDY    69  53  56 SW7       29.93R
OMAHA          PTSUNNY   75  53  46 SE20      29.99F
GRAND ISLAND   RAIN      62  60  93 SW12      30.01R FOG
KANSAS CITY    MOSUNNY   71  56  58 SE13      30.09F
WICHITA        PTSUNNY   78  53  41 S20G31    30.04F
HAYS           CLOUDY    70  55  60 S22G32    29.99S
LIBERAL        PTSUNNY   73  55  53 S20       30.02S
GOODLAND       SUNNY     74  45  35 N10       30.02S
$$



USA.gov is the U.S. government's official web portal to all federal, state and local government web resources and services.